User: anonymous   Login
Location: Unspecified
(50.0077°N, 36.2988°E)
Time: 21:35:53
(UTC+00:00)
Language:

ISS - Orbit

View from above orbital plane
View from above orbital plane
View from above satellite
View from above satellite

Ground track
Ground track

The orbit data is extracted from the following two-line orbital elements,

1 25544U 98067A   20301.53138079  .00001505  00000-0  35060-4 0  9991
2 25544  51.6458  53.6179 0001629  69.3056  17.8946 15.49340970252533
Epoch (UTC): 27 October 2020 12:45:11
Eccentricity: 0.0001629
inclination: 51.6458°
perigee height: 417 km
apogee height: 420 km
right ascension of ascending node: 53.6179°
argument of perigee: 69.3056°
revolutions per day: 15.49340970
mean anomaly at epoch: 17.8946°
orbit number at epoch: 25253

The dashed part of the orbit path shows where the satellite is in the earth's shadow,  

DLR